Home   Weather   Ribeirão Prêto   Past weeks
Flag for Brazil

Past Weather in Ribeirão Prêto, São Paulo, Brazil — Yesterday and Last 2 Weeks

Now
52 °F

Partly sunny.


Feels Like: 47 °F
Forecast: 73 / 46 °F
Wind: 15 mph from Southeast

Location: Leite Lopes / Ribeir

Current Time: Jul 17, 2019 at 10:01:10 am

Latest Report: Jul 17, 2019 at 9:00 am


Visibility: N/A

Pressure: 30.24 "Hg (28.31 "Hg at 549m altitude)

Humidity: 82%

Dew Point: 46 °F

Location of Ribeirão PrêtoLocation

Past Weather in Ribeirão Prêto — Graph

°F

Ribeirão Prêto Temperature Yesterday

Maximum temperature yesterday: 77 °F (at 1:00 pm)
Minimum temperature yesterday: 61 °F (at 11:00 pm)
Average temperature yesterday: 68 °F

High & Low Weather Summary for the Past Weeks

 TemperatureHumidityPressure
High88 °F (Jul 15, 1:00 pm)100% (Jul 4, 11:00 pm)30.45 "Hg (Jul 4, 11:00 pm)
Low41 °F (Jul 7, 4:00 am)20% (Jul 14, 3:00 pm)29.83 "Hg (Jul 2, 4:00 pm)
Average65 °F63%30.09 "Hg
* Reported Jul 2 9:00 am — Jul 17 9:00 am, Ribeirão Prêto. Weather by CustomWeather, © 2019

Note: Actual official high and low records may vary slightly from our data, if they occured in-between our weather recording intervals... More about our weather records

Advertising

Ribeirão Prêto Weather History for the Previous 24 Hours

Scroll right to see more
 ConditionsComfort  
Time TempWeatherWind HumidityBarometerVisibility
9:00 am
Wed, Jul 17
52 °FPartly sunny.15 mph82%30.24 "HgN/A
8:35 am50 °FPartly sunny.14 mph88%30.24 "HgN/A
8:00 am48 °FSunny.12 mph82%30.24 "Hg10 mi
7:00 am46 °FSunny.7 mph87%30.21 "Hg10 mi
6:00 am46 °FClear.6 mph87%30.18 "Hg10 mi
5:00 am50 °FClear.10 mph76%30.18 "Hg10 mi
4:00 am50 °FClear.10 mph88%30.18 "Hg10 mi
3:00 am52 °FClear.10 mph88%30.18 "Hg10 mi
2:00 am54 °FClear.14 mph82%30.18 "Hg10 mi
1:00 am55 °FClear.13 mph82%30.18 "Hg10 mi
12:00 am59 °FClear.14 mph72%30.18 "Hg10 mi
11:00 pm
Tue, Jul 16
61 °FClear.10 mph72%30.18 "Hg10 mi
10:00 pm63 °FClear.10 mph73%30.15 "Hg10 mi
9:00 pm64 °FClear.6 mph68%30.12 "Hg10 mi
8:00 pm68 °FClear.9 mph60%30.09 "Hg10 mi
7:00 pm68 °FClear.8 mph64%30.09 "Hg10 mi
6:00 pm73 °FClear.7 mph50%30.07 "Hg10 mi
5:00 pm77 °FPassing clouds.8 mph42%30.04 "HgN/A
4:00 pm77 °FPassing clouds.8 mph44%30.04 "HgN/A
3:00 pm77 °FPassing clouds.9 mph44%30.04 "HgN/A
2:00 pm77 °FPassing clouds.8 mph47%30.04 "HgN/A
1:00 pm77 °FPassing clouds.5 mph47%30.07 "HgN/A
12:00 pm75 °FPassing clouds.7 mph50%30.09 "HgN/A
11:00 am72 °FPassing clouds.5 mph61%30.09 "HgN/A
10:00 am68 °FSunny.No wind78%30.12 "Hg10 mi
Weather by CustomWeather, © 2019

See weather overview